カタログに戻る

STARLINK-32290

運用中通信VLEO
NORAD 60359·PAYLOAD·🇺🇸 United States

打ち上げ Aug 4, 2024 から Vandenberg Space Force Base

Loading…

次のパス (今後24時間)

TLE

最新Source: CelesTrak SupGP

元期: Sep 14, 2026, 14:04 UTC

1 60359C 24138E   26257.58659722  .00069758  00000+0  20612-2 0  2571
2 60359  53.1577 151.0917 0001092 102.2707 278.8298 15.34353561    19

AllMySatでSTARLINK-32290をリアルタイム追跡

Download on the App Store